RH
25 24 25 23 20 16 15 16 17 17 17 16 17 18 19 20 19 19 20 21 24 24 27 28 35 39 43 44 47 50 55 54 56 59 60 63 59 54 59 65 72 69 66
25 24 24 22 21 18 14 15 17 17 16 15 16 18 18 19 18 18 20 21 22 22 23 30 36 39 42 46 50 53 54 55 55 58 59 64 67 60 59 62 70 68 67
25 25 24 22 21 17 14 16 17 17 16 15 15 15 16 16 17 17 20 21 22 23 25 29 34 38 41 45 50 53 53 55 57 60 64 68 67 66 61 63 65 65 66
27 25 22 19 17 17 15 17 16 16 17 15 14 13 14 14 15 17 19 21 22 24 26 29 32 36 40 44 49 51 51 54 56 56 63 69 77 70 66 63 62 63 64
27 26 25 20 21 20 18 17 17 17 18 18 16 14 13 14 15 18 20 21 23 26 29 31 34 38 43 47 46 49 50 50 50 53 59 64 74 74 70 66 64 65 66
27 27 25 23 22 21 19 19 18 19 20 20 20 17 15 14 16 17 21 25 27 26 32 38 42 43 48 48 47 49 51 52 51 53 58 58 70 71 70 72 63 62 66
30 27 26 26 23 24 24 22 21 22 25 23 22 21 18 16 16 17 22 25 28 28 34 39 43 46 50 51 52 55 57 58 59 58 59 59 61 66 65 69 64 64 68
42 41 35 30 28 26 30 25 24 23 27 29 25 25 22 17 17 17 20 22 28 32 37 39 44 49 51 53 57 62 63 62 66 63 62 62 62 67 66 69 69 70 74
45 39 37 45 44 36 31 30 30 26 31 37 37 29 24 20 18 18 22 24 29 37 43 41 44 49 51 57 61 63 67 66 67 70 69 69 66 70 70 75 77 78 83
50 47 46 42 43 46 46 39 32 32 38 36 33 32 26 24 22 20 23 25 31 35 45 48 48 51 53 60 63 67 70 73 72 74 73 72 71 77 77 81 82 84 86
47 50 54 52 49 49 46 51 40 42 41 35 34 32 26 24 24 20 23 26 31 33 41 50 53 56 57 65 69 74 75 72 70 71 72 75 78 81 81 84 87 88 92
45 51 50 50 50 51 54 58 63 48 42 40 37 30 26 25 25 21 22 25 29 31 35 44 47 53 57 68 72 78 79 77 78 77 73 76 78 82 89 90 91 94 97
49 49 51 49 47 48 52 57 67 66 54 46 42 35 30 26 25 22 23 25 28 29 32 38 40 42 50 66 71 79 81 77 76 82 82 81 81 82 96 97 97 98 98
51 49 51 52 52 52 54 56 57 63 59 54 42 36 34 29 27 24 23 24 26 28 29 33 35 36 44 59 68 75 81 73 74 80 88 90 79 73 93 97 96 99 97
39 46 54 54 51 49 54 60 58 58 61 47 43 40 34 33 29 27 25 24 25 26 27 32 33 33 41 53 60 73 85 79 77 82 89 91 85 75 96 98 99 99 98
43 42 42 51 56 53 48 56 57 54 54 51 40 39 37 34 31 29 29 26 25 26 27 31 32 33 39 48 56 77 86 86 83 88 94 93 90 86 85 91 97 96 95
49 49 47 47 47 63 57 63 55 52 58 58 46 42 41 37 34 33 30 26 25 26 28 29 31 35 43 50 60 82 84 87 86 91 95 95 94 92 90 95 94 96 93
48 53 53 52 52 52 61 59 56 48 54 62 52 47 44 42 41 36 31 26 26 27 27 29 33 42 52 60 67 76 83 87 90 89 95 98 96 99 97 98 98 97 93
52 53 56 58 58 57 56 67 70 57 48 55 63 64 50 46 43 38 34 30 29 30 36 37 44 51 59 68 76 75 87 91 91 90 92 98 98 98 98 98 97 96 96
53 56 56 59 61 61 60 63 59 60 54 52 57 79 66 51 48 43 37 32 32 35 39 42 49 53 63 76 77 84 93 95 93 97 98 99 97 98 96 96 97 97 98
57 53 56 60 64 68 68 67 65 67 59 59 60 65 79 60 51 46 40 36 36 37 40 42 51 57 67 71 86 94 95 98 99 99 98 98 94 99 98 98 98 98 97
56 58 54 58 65 73 76 74 70 68 75 65 58 54 62 69 57 51 44 41 40 40 39 48 50 64 65 82 89 96 98 98 98 99 98 98 99 99 99 96 95 97 95
46 57 59 62 66 72 79 79 75 75 72 68 62 63 59 72 65 55 51 46 41 38 46 50 55 61 62 91 98 96 96 98 97 98 99 99 98 99 98 96 95 92 89
41 49 64 76 77 78 81 85 84 81 82 82 69 64 61 74 80 69 56 49 43 41 50 53 60 63 76 82 98 94 95 92 93 98 99 98 98 98 98 95 93 92 91
48 48 58 76 92 95 87 86 88 90 87 81 75 68 88 97 97 82 62 53 48 50 57 55 59 67 75 91 98 93 94 95 95 93 95 98 98 98 98 96 93 91 87
54 54 54 70 77 87 90 94 88 86 91 97 86 83 67 78 88 87 70 57 50 56 57 61 66 78 84 80 92 91 92 93 96 94 97 98 97 98 98 97 95 94 91